Startpagina
METAR-TAF:

METAR-TAF

Vliegvelden :

Boulder, Colorado, Verenigde Staten

breedte: 40-02-22N, lengte: 105-13-33W, hoogte: 1612 m

Actueel weer

Dit bericht is 10 minuten geleden gemaakt, om 06:12 UTC
Weinig wind
Temperatuur 0°C
Vochtigheid 93%
Druk 1022 hPa
Zicht: 16.1 km
Onbewolkt

METAR: KBDU 070612Z AUTO 00000KT 10SM CLR 00/M01 A3018 RMK AO2

Tijdstip: 23:22 (06:22 UTC)


TAF: ontbreekt

Waarnemingen en weersverwachtingen van meer dan 4000 vliegvelden (METAR en TAF).

De beschikbare stations zijn de gele en rode punten op de kaart.

Ga met uw muis naar het station om de naam te zien.

Klik dan om waarnemingen en weersverwachtingen te zien.

kaart wijzigen: klik op de groene knoppen met een zwart kruis om in te zoomen, op de groene knop met een streepje om uit te zoomen of op de groene pijlen voor aangrenzende kaarten.


METAR-TAF: